Weather History for Washington, NC

Change the Weather History Date:

Sunday, October 6, 2013

  Actual Average (KEWN) Record (KEWN)
Temperature  
Mean Temperature 73 °F 67 °F  
Max Temperature 83 °F 77 °F 95 °F (1954)
Min Temperature 63 °F 57 °F 36 °F (1965)
Degree Days  
Heating Degree Days 0 2  
Month to date heating degree days 8  
Since 1 July heating degree days 15  
Cooling Degree Days 8 4  
Month to date cooling degree days 28  
Year to date cooling degree days 1831  
Growing Degree Days 23 (Base 50)    
Moisture  
Dew Point 67 °F    
Average Humidity 77    
Maximum Humidity 85    
Minimum Humidity 57    
Precipitation  
Precipitation 0.00 in 0.12 in 1.42 in (2005)
Month to date precipitation 0.77  
Year to date precipitation 43.46  
Snow  
Snow 0.00 in - - ()
Month to date snowfall  
Since 1 July snowfall  
Snow Depth -    
Sea Level Pressure  
Sea Level Pressure 30.05 in    
Wind  
Wind Speed 3 mph (SSE)    
Max Wind Speed 10 mph    
Max Gust Speed -    
Visibility 8 miles    
Events      
T = Trace of Precipitation, MM = Missing Value Source: NWS Daily Summary

Daily Weather History Graph

Daily Weather History Graph

Search for Another Location

Airport:

Trip Planner

Search our weather history database for the weather conditions in past years. The results will help you decide how hot, cold, wet, or windy it might be!

Date:

Astronomy

Oct. 06, 2013 Rise Set
Actual Time 7:07 AM EDT 6:44 PM EDT
Civil Twilight 6:41 AM EDT 7:10 PM EDT
Nautical Twilight 6:12 AM EDT 7:39 PM EDT
Astronomical Twilight 5:42 AM EDT 8:09 PM EDT
Moon 8:44 AM EDT (10/6) 7:47 PM EDT (10/6)
Length of Visible Light 12h 28m
Length of Day
11h 37m
Waxing Crescent, 3% of the Moon is Illuminated
Oct 6
Waxing Crescent
Oct 11
First Quarter
Oct 18
Full
Oct 26
Last Quarter
Nov 3
New

Hourly Weather History & Observations

Time (EDT) Temp. Heat Index Dew Point Humidity Pressure Visibility Wind Dir Wind Speed Gust Speed Precip Events Conditions
12:15 AM 73.0 °F - 68.0 °F 84% 30.09 in 10.0 mi Calm Calm - N/A   Clear
12:35 AM 73.0 °F - 68.0 °F 84% 30.08 in 10.0 mi Calm Calm - N/A   Clear
12:55 AM 73.0 °F - 68.0 °F 84% 30.08 in 10.0 mi Calm Calm - N/A   Clear
1:15 AM 72.9 °F - 67.8 °F 84% 30.08 in 10.0 mi Calm Calm - N/A   Clear
1:35 AM 71.1 °F - 66.0 °F 84% 30.08 in 10.0 mi South 3.5 mph - N/A   Clear
1:55 AM 71.2 °F - 66.2 °F 84% 30.08 in 10.0 mi SSW 3.5 mph - N/A   Clear
2:15 AM 70.7 °F - 65.5 °F 83% 30.08 in 10.0 mi SSW 3.5 mph - N/A   Clear
2:35 AM 70.7 °F - 65.5 °F 83% 30.07 in 7.0 mi SSW 3.5 mph - N/A   Clear
2:55 AM 70.3 °F - 65.1 °F 83% 30.06 in 7.0 mi Calm Calm - N/A   Clear
3:15 AM 70.7 °F - 65.7 °F 84% 30.06 in 7.0 mi South 3.5 mph - N/A   Clear
3:35 AM 70.7 °F - 65.7 °F 84% 30.06 in 5.0 mi Calm Calm - N/A   Clear
3:55 AM 68.0 °F - 63.1 °F 84% 30.06 in 5.0 mi Calm Calm - N/A   Clear
4:15 AM 68.2 °F - 63.5 °F 85% 30.06 in 3.0 mi Calm Calm - N/A   Clear
4:35 AM 66.9 °F - 62.2 °F 85% 30.06 in 5.0 mi Calm Calm - N/A   Clear
4:55 AM 66.7 °F - 62.1 °F 85% 30.06 in 7.0 mi Calm Calm - N/A   Clear
5:15 AM 65.7 °F - 61.0 °F 85% 30.06 in 10.0 mi Calm Calm - N/A   Clear
5:35 AM 65.5 °F - 60.8 °F 85% 30.06 in 7.0 mi Calm Calm - N/A   Scattered Clouds
5:55 AM 65.7 °F - 61.0 °F 85% 30.07 in 1.0 mi Calm Calm - N/A   Mostly Cloudy
6:15 AM 64.4 °F - 59.7 °F 85% 30.07 in 4.0 mi Calm Calm - N/A   Clear
6:35 AM 64.4 °F - 59.5 °F 84% 30.07 in 2.5 mi Calm Calm - N/A   Mostly Cloudy
6:55 AM 63.1 °F - 58.5 °F 85% 30.07 in 2.5 mi Calm Calm - N/A   Overcast
7:15 AM 63.0 °F - 58.3 °F 85% 30.07 in 0.8 mi Calm Calm - N/A   Overcast
7:35 AM 63.0 °F - 58.3 °F 85% 30.08 in 1.5 mi Calm Calm - N/A   Overcast
7:55 AM 63.5 °F - 58.8 °F 85% 30.08 in 1.8 mi Calm Calm - N/A   Overcast
8:15 AM 64.6 °F - 59.9 °F 85% 30.08 in 3.0 mi Calm Calm - N/A   Overcast
8:35 AM 68.0 °F - 63.5 °F 85% 30.09 in 4.0 mi Calm Calm - N/A   Scattered Clouds
8:55 AM 71.1 °F - 66.0 °F 84% 30.09 in 10.0 mi Calm Calm - N/A   Clear
9:15 AM 73.0 °F - 68.0 °F 84% 30.09 in 10.0 mi Calm Calm - N/A   Clear
9:35 AM 78.1 °F - 72.7 °F 83% 30.09 in 10.0 mi South 4.6 mph - N/A   Clear
9:55 AM 78.1 °F - 72.5 °F 83% 30.09 in 10.0 mi SSE 3.5 mph - N/A   Clear
10:15 AM 78.1 °F - 71.8 °F 81% 30.09 in 10.0 mi South 6.9 mph - N/A   Clear
10:35 AM 78.8 °F - 71.6 °F 78% 30.09 in 10.0 mi South 8.1 mph - N/A   Clear
10:55 AM 80.8 °F 85.2 °F 72.7 °F 76% 30.09 in 10.0 mi SSE 5.8 mph - N/A   Clear
11:15 AM 80.8 °F 84.7 °F 71.2 °F 73% 30.09 in 10.0 mi SE 9.2 mph - N/A   Clear
11:35 AM 80.8 °F 83.9 °F 69.3 °F 68% 30.08 in 10.0 mi SE 6.9 mph - N/A   Scattered Clouds
11:55 AM 82.4 °F 86.5 °F 70.3 °F 67% 30.08 in 10.0 mi SE 4.6 mph - N/A   Clear
12:15 PM 82.8 °F 86.4 °F 69.3 °F 64% 30.07 in 10.0 mi SSE 6.9 mph - N/A   Clear
12:35 PM 82.6 °F 85.9 °F 68.9 °F 63% 30.06 in 10.0 mi ESE 8.1 mph - N/A   Clear
12:55 PM 83.3 °F 86.9 °F 69.1 °F 62% 30.06 in 10.0 mi SE 6.9 mph - N/A   Clear
1:15 PM 83.3 °F 85.7 °F 66.7 °F 57% 30.05 in 10.0 mi SSE 8.1 mph - N/A   Clear
1:35 PM 83.3 °F 86.2 °F 67.5 °F 59% 30.04 in 10.0 mi SSE 4.6 mph - N/A   Clear
1:55 PM 83.3 °F 86.2 °F 67.6 °F 59% 30.03 in 10.0 mi SSE 6.9 mph - N/A   Clear
2:15 PM 83.3 °F 86.2 °F 67.6 °F 59% 30.03 in 10.0 mi SSE 4.6 mph - N/A   Clear
2:35 PM 83.3 °F 85.7 °F 66.4 °F 57% 30.03 in 10.0 mi SE 9.2 mph - N/A   Clear
2:55 PM 83.3 °F 85.9 °F 67.3 °F 58% 30.02 in 10.0 mi South 8.1 mph - N/A   Clear
3:15 PM 83.3 °F 85.9 °F 66.9 °F 58% 30.01 in 10.0 mi SSE 8.1 mph - N/A   Clear
3:35 PM 83.3 °F 86.2 °F 67.8 °F 59% 30.01 in 10.0 mi SE 8.1 mph - N/A   Scattered Clouds
3:55 PM 83.5 °F 86.4 °F 68.0 °F 59% 30.01 in 10.0 mi ESE 10.4 mph - N/A   Mostly Cloudy
4:15 PM 83.3 °F 86.9 °F 69.3 °F 62% 30.01 in 10.0 mi South 6.9 mph - N/A   Mostly Cloudy
4:35 PM 83.3 °F 87.4 °F 70.0 °F 64% 30.01 in 10.0 mi SSE 5.8 mph - N/A   Scattered Clouds
4:55 PM 81.1 °F 84.0 °F 68.4 °F 65% 30.01 in 10.0 mi SSE 6.9 mph - N/A   Scattered Clouds
5:15 PM 80.8 °F 83.6 °F 68.4 °F 66% 30.01 in 10.0 mi SSE 8.1 mph - N/A   Scattered Clouds
5:35 PM 80.8 °F 83.9 °F 69.3 °F 68% 30.01 in 10.0 mi South 6.9 mph - N/A   Scattered Clouds
5:55 PM 80.8 °F 84.2 °F 70.2 °F 70% 30.01 in 10.0 mi SSE 6.9 mph - N/A   Scattered Clouds
6:15 PM 78.6 °F - 68.7 °F 72% 30.01 in 10.0 mi South 5.8 mph - N/A   Scattered Clouds
6:35 PM 78.1 °F - 68.9 °F 73% 30.00 in 10.0 mi SSE 8.1 mph - N/A   Scattered Clouds
6:55 PM 78.1 °F - 69.3 °F 74% 30.00 in 10.0 mi SSE 5.8 mph - N/A   Scattered Clouds
7:15 PM 78.1 °F - 70.3 °F 77% 30.00 in 10.0 mi SE 5.8 mph - N/A   Scattered Clouds
7:35 PM 78.1 °F - 71.1 °F 79% 30.00 in 10.0 mi SSE 5.8 mph - N/A   Mostly Cloudy
7:55 PM 78.1 °F - 70.7 °F 78% 30.01 in 10.0 mi SSE 5.8 mph - N/A   Overcast
8:15 PM 78.1 °F - 71.1 °F 79% 30.00 in 10.0 mi SE 6.9 mph - N/A   Mostly Cloudy
8:35 PM 78.1 °F - 71.2 °F 79% 30.01 in 10.0 mi SE 6.9 mph - N/A   Scattered Clouds
8:55 PM 78.1 °F - 71.4 °F 80% 30.01 in 10.0 mi South 4.6 mph - N/A   Overcast
9:15 PM 78.1 °F - 71.2 °F 79% 30.01 in 10.0 mi SSE 4.6 mph - N/A   Overcast
9:35 PM 78.1 °F - 71.8 °F 81% 30.01 in 10.0 mi South 5.8 mph - N/A   Overcast
9:55 PM 78.1 °F - 71.8 °F 81% 30.01 in 10.0 mi SE 4.6 mph - N/A   Overcast
10:15 PM 78.1 °F - 72.5 °F 83% 30.01 in 10.0 mi SSE 5.8 mph - N/A   Overcast
10:35 PM 78.1 °F - 72.5 °F 83% 30.01 in 10.0 mi South 10.4 mph - N/A   Overcast
10:55 PM 78.1 °F - 72.5 °F 83% 30.00 in 10.0 mi SSW 6.9 mph - N/A   Overcast
11:15 PM 75.6 °F - 70.3 °F 84% 29.99 in 10.0 mi South 3.5 mph - N/A   Scattered Clouds
11:35 PM 75.2 °F - 70.2 °F 84% 29.99 in 10.0 mi SSE 4.6 mph - N/A   Scattered Clouds
11:55 PM 74.7 °F - 69.6 °F 84% 29.99 in 10.0 mi South 3.5 mph - N/A   Clear